Weather Service Report


588 
ASUS42 KTBW 261417
RWRFL 
FLORIDA REGIONAL WEATHER ROUNDUP
NATIONAL WEATHER SERVICE TAMPA BAY RUSKIN FL
1000 AM EDT THU MAY 26 2016

NOTE: "FAIR" INDICATES FEW OR NO CLOUDS BELOW 12,000 FEET WITH NO
SIGNIFICANT WEATHER AND/OR OBSTRUCTIONS TO VISIBILITY.

FLZ001>010-012>015-112-114-115-261500-
PANHANDLE FLORIDA
  
CITY           SKY/WX    TMP DP  RH WIND       PRES   REMARKS
PENSACOLA      CLOUDY    79  71  76 SE8       30.14F                  
PENSACOLA NAS  PTSUNNY   79  71  76 SE8       30.14S                  
MILTON NAS     CLOUDY    75  72  90 E6        30.15                   
CRESTVIEW      CLOUDY    76  71  85 SE6       30.18F                  
DUKE FIELD     PTSUNNY   76  71  84 SE7       30.17R                  
VALPARAISO     PTSUNNY   78  72  83 SE7       30.16S                  
TRI COUNTY     FAIR      79  70  74 S3        30.18F                  
PANAMA CITY    FAIR      79  71  76 SE5       30.17R                  
TYNDALL AFB    PTSUNNY   78  72  82 VRB7      30.17S                  
APALACHICOLA   SUNNY     82  70  66 S12       30.18R                  

STATION/POSITION SKY/WX   TEMP    WIND        PRES    WAVE   SWELL
                          AIR SEA DIR/SP/G            HT/PER HT/PER
                          (F)     (DEG/KT/KT) (MB)    (FT/S) (FT/S)
30.1N   87.6W              78 80  120/ 10/ 12 1019.4F   2/ 5   2/ 5
29.2N   88.2W              78 78  120/  6/  8 1020.0S
28.8N   86.0W              79 80  130/ 12/ 16 1020.9F   2/ 5
PANAMA CITY BEAC           77 78  130/  7/  9 1021.7R
TOWER C                    77     150/ 11/ 12 1022.4R
28.5N   84.5W              78 77  130/ 12/ 14 1020.9R   4/ 5

$$
FLZ011-016>038-118-127-128-134-139-239-261500-
NORTH FLORIDA
  
CITY           SKY/WX    TMP DP  RH WIND       PRES   REMARKS
MARIANNA       SUNNY     79  71  76 S7        30.17F                  
TALLAHASSEE    MOSUNNY   80  66  62 S8        30.18S                  
PERRY          SUNNY     78  63  58 SE8       30.20S                  
LIVE OAK       FAIR      79  64  61 SE5       30.22S                  
CROSS CITY       N/A     79  60  52 SE6       30.19S                  
LAKE CITY      FAIR      77  63  61 SE3       30.21R                  
GAINESVILLE    SUNNY     78  64  61 SE8       30.19F                  
WILLISTON      FAIR      81  63  54 E8        30.19F                  
PALATKA        FAIR      79  64  61 E3        30.20F                  
MAYPORT NAS    MOSUNNY   78  63  59 VRB5      30.21R                  
JACKSONVILLE   MOSUNNY   79  65  62 SE5       30.20S                  
JAX NAS        MOSUNNY   80  62  54 SE6       30.21S                  
JAX CECIL      SUNNY     77  64  65 CALM      30.21S                  
FERNANDINA BEA FAIR      81  63  54 SE6       30.20S                  
ST AUGUSTINE   MOSUNNY   79  63  57 E7        30.21R                  
PALM COAST     MOSUNNY   79  63  57 E7        30.19R                  

STATION/POSITION SKY/WX   TEMP    WIND        PRES    WAVE   SWELL
                          AIR SEA DIR/SP/G            HT/PER HT/PER
                          (F)     (DEG/KT/KT) (MB)    (FT/S) (FT/S)
SHELL POINT                79     160/ 11/ 12 1020.8
KEATON BEACH               77     150/  7/  8 1021.9S
CEDAR KEY                  75     120/  6/  7 1022.4F
FERNANDINA                 80 80  110/  5/  6 1022.7R
30.7N   81.3W                 78                N/A     2/ 8
MAYPORT                    78 80  110/  2/  6 1023.0R
31.4N   80.9W              77 76  170/  4/  6 1023.2R   2/ 8   2/ 8
ST AUGUSTINE               76 78   70/  5/  6 1023.5R

$$
FLZ040-043>046-052-053-057-058-063-144-261500-
INTERIOR CENTRAL FLORIDA
  
CITY           SKY/WX    TMP DP  RH WIND       PRES   REMARKS
OCALA          SUNNY     79  61  53 E5        30.19S                  
THE VILLAGES     N/A     81  64  57 SE9       30.07F                  
LEESBURG       SUNNY     79  60  52 E9        30.18F                  
SANFORD        SUNNY     80  59  48 VRB6      30.17R                  
ORLANDO EXEC   SUNNY     80  61  52 NE8       30.17R                  
ORLANDO INTL   MOSUNNY   80  61  52 NE7       30.17R                  
WINTER HAVEN   SUNNY     79  59  50 VRB6      30.18S                  
LAKELAND       SUNNY     79  63  57 E10G16    30.16F                  
BARTOW         MOSUNNY   77  59  53 E7        30.18S                  
OKEECHOBEE     SUNNY     79  64  61 NE6       30.13R                  

$$
FLZ041-047-054-059-064-141-147-261500-
EAST CENTRAL FLORIDA
  
CITY           SKY/WX    TMP DP  RH WIND       PRES   REMARKS
ORMOND BEACH   SUNNY     77  63  61 E9        30.18R                  
DAYTONA BEACH  MOSUNNY   79  64  60 NE10      30.18R                  
DELAND           N/A     79  63  57 CALM      30.19S                  
NEW SMYRNA BEA SUNNY     82  63  51 E12       30.17R                  
JFK SPACE CTR  MOSUNNY   80  64  58 E10       30.14R                  
TITUSVILLE     PTSUNNY   79  64  61 E17       30.15R                  
CAPE CANAVERAL SUNNY     80  63  55 E10       30.13S                  
PATRICK AFB    SUNNY     81  64  55 E14       30.13S                  
MELBOURNE      MOSUNNY   81  63  54 E14       30.13S                  
VERO BEACH     SUNNY     81  61  50 E13       30.12F                  
FT PIERCE      SUNNY     80  61  52 NE9       30.11F                  
STUART         MOSUNNY   82  63  51 NE14      30.13F                  

STATION/POSITION SKY/WX   TEMP    WIND        PRES    WAVE   SWELL
                          AIR SEA DIR/SP/G            HT/PER HT/PER
                          (F)     (DEG/KT/KT) (MB)    (FT/S) (FT/S)
28.5N   80.2W              77 79   60/ 12/ 14 1020.9F
28.9N   78.5W              76 78   50/ 10/ 14 1021.1F
TRIDENT PIER               78 80   70/  9/ 12 1020.6F
28.4N   80.5W                 80                N/A     2/ 5
27.5N   80.2W                 80                N/A     3/ 9

$$
FLZ050-056-061-142-242-148-248-149-249-151-251-155-255-
160-260-261500-
WEST CENTRAL FLORIDA
  
CITY           SKY/WX    TMP DP  RH WIND       PRES   REMARKS
CRYSTAL RIVER  FAIR      79  61  53 E3        30.17F                  
INVERNESS      FAIR      79  64  61 E5        30.18S                  
BROOKSVILLE    SUNNY     78  60  53 E7        30.18S                  
ZEPHYRHILLS    FAIR      79  58  47 NE9       30.17S                  
CLEARWATER AIR FAIR      77  61  57 SE7       30.16S                  
ST PETE CLEARW SUNNY     78  61  55 E7        30.16R                  
TAMPA INTL     MOSUNNY   79  59  50 NE6       30.16S                  
TAMPA EXEC     SUNNY     81  61  50 E8        30.17S                  
PLANT CITY     SUNNY     81  63  54 E8        30.17F                  
MACDILL AFB    SUNNY     79  64  59 E10       30.15S                  
PETER O KNIGHT SUNNY     82  63  51 E8        30.16S                  
ST PETERSBURG  SUNNY     78  62  57 E7        30.14S                  
SARASOTA       SUNNY     80  59  48 E12       30.13S                  
VENICE         NOT AVBL                                               

STATION/POSITION SKY/WX   TEMP    WIND        PRES    WAVE   SWELL
                          AIR SEA DIR/SP/G            HT/PER HT/PER
                          (F)     (DEG/KT/KT) (MB)    (FT/S) (FT/S)
27.3N   84.2W                 81                N/A     4/ 6
CLEARWATER BEACH           76 81  120/  8/ 12 1021.2R
MIDDLE TAMPA BAY           74     110/  7/  9 1021.1F
VENICE                     77 81  100/  9/ 12 1020.1F

$$
FLZ066-069-070-075>078-162-262-165-265-261500-
SOUTHWEST FLORIDA AND KEYS
  
CITY           SKY/WX    TMP DP  RH WIND       PRES   REMARKS
PUNTA GORDA    SUNNY     79  61  53 E9        30.15F                  
FT MYERS       SUNNY     80  60  50 E8        30.12S                  
SOUTHWEST INTL SUNNY     79  60  52 E8        30.13S                  
NAPLES         SUNNY     81  58  45 NE13      30.12S                  
MARCO ISLAND   SUNNY     81  57  44 NE8       30.12S                  
MARATHON       SUNNY     82  64  54 NE13      30.07F                  
KEY WEST NAS   MOSUNNY   81  66  60 NE12      30.09R                  
KEY WEST INTL  SUNNY     81  68  64 NE9       30.10R                  

STATION/POSITION SKY/WX   TEMP    WIND        PRES    WAVE   SWELL
                          AIR SEA DIR/SP/G            HT/PER HT/PER
                          (F)     (DEG/KT/KT) (MB)    (FT/S) (FT/S)
NAPLES                        83              1019.8R
26.0N   85.6W              80 81  100/ 17/ 19 1019.0R   4/ 5
DRY TORTUGAS               79      90/ 14/ 14 1018.8F
SAND KEY                   79      70/ 13/ 15 1019.4R
LONG KEY                   79 81   60/ 14/ 16 1018.8F
MOLASSES REEF              80 83   60/ 12/ 14 1018.9F

$$
FLZ067-068-071>074-168-172>174-261500-
SOUTHEAST FLORIDA 
  
CITY           SKY/WX    TMP DP  RH WIND       PRES   REMARKS
W PALM BEACH   MOSUNNY   82  63  52 NE13      30.11F                  
FT LAUDER-EXEC MOSUNNY   80  59  48 E15       30.09F                  
FT LAUDERDALE  MOSUNNY   81  58  45 E18       30.09F                  
POMPANO BEACH  LGT RAIN  79  63  57 E13G20    30.10F                  
PEMBROKE PINES MOSUNNY   83  60  45 E14G22    30.10F                  
OPA LOCKA      MOSUNNY   82  62  50 E17       30.10F                  
MIAMI          PTSUNNY   79  62  56 NE10G16   30.09F                  
WEST KENDALL   SUNNY     82  59  45 E16       30.08F                  
HOMESTEAD      SUNNY     81  60  48 NE10      30.08F                  

STATION/POSITION SKY/WX   TEMP    WIND        PRES    WAVE   SWELL
                          AIR SEA DIR/SP/G            HT/PER HT/PER
                          (F)     (DEG/KT/KT) (MB)    (FT/S) (FT/S)
PORT EVERGLADES            80      80/ 10/ 13 1019.1F
VIRGINIA KEY               79 81   60/ 10/ 11 1019.7R
LAKE WORTH                 78 80   30/ 12/ 14 1019.6S
FOWEY ROCKS                79 82   60/ 14/ 15 1019.3F
SETTLEMENT POINT           78      70/ 11/ 13 1020.5S

$$

  

Return to Home page


Western Regional Climate Center, wrcc@dri.edu